Previsão horária em Alia

Hoje, 19 Junho, Sábado

Tempo Temperatura Precipitação Vento Pressão Humidade
00:00 +21°C° 0 mm 1 m/s 712 mmHg 54%
01:00 +20°C° 0 mm 1 m/s 711 mmHg 55%
02:00 +20°C° 0 mm 1 m/s 711 mmHg 53%
03:00 +20°C° 0 mm 1 m/s 711 mmHg 52%
04:00 +20°C° 0 mm 1 m/s 711 mmHg 51%
05:00 +22°C° 0 mm 1 m/s 711 mmHg 45%
06:00 +24°C° 0 mm 1 m/s 711 mmHg 38%
07:00 +26°C° 0 mm 1 m/s 712 mmHg 31%
08:00 +28°C° 0 mm 1 m/s 712 mmHg 27%
09:00 +30°C° 0 mm 2 m/s 712 mmHg 23%
10:00 +32°C° 0 mm 2 m/s 712 mmHg 20%
11:00 +34°C° 0 mm 3 m/s 712 mmHg 20%
12:00 +35°C° 0 mm 3 m/s 712 mmHg 20%
13:00 +35°C° 0 mm 4 m/s 712 mmHg 20%
14:00 +35°C° 0 mm 4 m/s 711 mmHg 21%
15:00 +34°C° 0 mm 4 m/s 711 mmHg 22%
16:00 +34°C° 0 mm 4 m/s 711 mmHg 23%
17:00 +31°C° 0 mm 3 m/s 711 mmHg 26%
18:00 +29°C° 0 mm 2 m/s 711 mmHg 30%
19:00 +27°C° 0 mm 1 m/s 711 mmHg 33%
20:00 +26°C° 0 mm 1 m/s 711 mmHg 33%
21:00 +25°C° 0 mm 1 m/s 711 mmHg 33%
22:00 +24°C° 0 mm 1 m/s 711 mmHg 33%
23:00 +24°C° 0 mm 1 m/s 711 mmHg 32%

Amanhã, 20 Junho, Domingo

Tempo Temperatura Precipitação Vento Pressão Humidade
00:00 +24°C° 0 mm 1 m/s 710 mmHg 32%
01:00 +25°C° 0 mm 1 m/s 710 mmHg 31%
02:00 +24°C° 0 mm 1 m/s 710 mmHg 32%
03:00 +24°C° 0 mm 1 m/s 710 mmHg 33%
04:00 +24°C° 0 mm 2 m/s 709 mmHg 34%
05:00 +26°C° 0 mm 1 m/s 710 mmHg 31%
06:00 +28°C° 0 mm 1 m/s 710 mmHg 28%
07:00 +30°C° 0 mm 1 m/s 711 mmHg 25%
08:00 +32°C° 0 mm 2 m/s 711 mmHg 23%
09:00 +35°C° 0 mm 2 m/s 711 mmHg 20%
10:00 +37°C° 0 mm 3 m/s 711 mmHg 18%
11:00 +37°C° 0 mm 3 m/s 711 mmHg 17%
12:00 +38°C° 0 mm 3 m/s 711 mmHg 17%
13:00 +39°C° 0 mm 3 m/s 711 mmHg 16%
14:00 +39°C° 0 mm 3 m/s 710 mmHg 17%
15:00 +39°C° 0 mm 3 m/s 710 mmHg 17%
16:00 +38°C° 0 mm 3 m/s 709 mmHg 18%
17:00 +36°C° 0 mm 2 m/s 709 mmHg 21%
18:00 +35°C° 0 mm 2 m/s 709 mmHg 24%
19:00 +32°C° 0 mm 2 m/s 709 mmHg 27%
20:00 +30°C° 0 mm 1 m/s 709 mmHg 28%
21:00 +29°C° 0 mm 1 m/s 709 mmHg 30%
22:00 +27°C° 0 mm 1 m/s 709 mmHg 32%
23:00 +27°C° 0 mm 1 m/s 709 mmHg 31%

Depois de amanhã, 21 Junho, Segunda-feira

Tempo Temperatura Precipitação Vento Pressão Humidade
00:00 +27°C° 0 mm 1 m/s 709 mmHg 30%
01:00 +27°C° 0 mm 1 m/s 708 mmHg 30%
02:00 +26°C° 0 mm 1 m/s 709 mmHg 32%
03:00 +26°C° 0 mm 2 m/s 709 mmHg 35%
04:00 +25°C° 0 mm 2 m/s 709 mmHg 38%
05:00 +27°C° 0 mm 1 m/s 709 mmHg 33%
06:00 +29°C° 0 mm 1 m/s 709 mmHg 28%
07:00 +31°C° 0 mm 1 m/s 709 mmHg 23%
08:00 +34°C° 0.1 mm 2 m/s 710 mmHg 21%
09:00 +36°C° 0.1 mm 2 m/s 710 mmHg 19%
10:00 +38°C° 0.1 mm 2 m/s 710 mmHg 17%
11:00 +37°C° 0 mm 3 m/s 710 mmHg 18%
12:00 +37°C° 0 mm 3 m/s 710 mmHg 19%
13:00 +37°C° 0 mm 3 m/s 709 mmHg 21%
14:00 +37°C° 0 mm 3 m/s 709 mmHg 19%
15:00 +38°C° 0 mm 3 m/s 709 mmHg 18%
16:00 +38°C° 0 mm 3 m/s 709 mmHg 16%
17:00 +36°C° 0 mm 2 m/s 709 mmHg 22%
18:00 +32°C° 0 mm 2 m/s 709 mmHg 27%
19:00 +30°C° 0 mm 1 m/s 709 mmHg 33%
20:00 +29°C° 0 mm 2 m/s 709 mmHg 31%
21:00 +28°C° 0 mm 2 m/s 709 mmHg 30%
22:00 +27°C° 0 mm 2 m/s 709 mmHg 28%
23:00 +27°C° 0 mm 2 m/s 709 mmHg 28%

22 Junho, Terça-feira

Tempo Temperatura Precipitação Vento Pressão Humidade
00:00 +27°C° 0 mm 2 m/s 709 mmHg 27%
01:00 +27°C° 0 mm 2 m/s 708 mmHg 27%
02:00 +27°C° 0 mm 2 m/s 708 mmHg 27%
03:00 +27°C° 0 mm 2 m/s 708 mmHg 27%
04:00 +27°C° 0 mm 2 m/s 708 mmHg 27%
05:00 +29°C° 0 mm 2 m/s 708 mmHg 25%
06:00 +30°C° 0 mm 2 m/s 708 mmHg 24%
07:00 +31°C° 0 mm 2 m/s 709 mmHg 22%
08:00 +35°C° 0 mm 3 m/s 709 mmHg 20%
09:00 +37°C° 0 mm 4 m/s 709 mmHg 17%
10:00 +41°C° 0 mm 4 m/s 709 mmHg 14%
11:00 +40°C° 0 mm 5 m/s 709 mmHg 16%
12:00 +40°C° 0 mm 5 m/s 709 mmHg 18%
13:00 +39°C° 0 mm 5 m/s 709 mmHg 20%
14:00 +39°C° 0 mm 5 m/s 709 mmHg 20%
15:00 +38°C° 0 mm 4 m/s 709 mmHg 21%
16:00 +37°C° 0 mm 4 m/s 709 mmHg 22%
17:00 +36°C° 0 mm 3 m/s 709 mmHg 24%
18:00 +34°C° 0 mm 2 m/s 709 mmHg 27%
19:00 +31°C° 0 mm 2 m/s 709 mmHg 29%
20:00 +30°C° 0 mm 1 m/s 709 mmHg 33%
21:00 +29°C° 0 mm 1 m/s 709 mmHg 36%
22:00 +27°C° 0 mm 1 m/s 709 mmHg 39%
23:00 +27°C° 0 mm 1 m/s 709 mmHg 35%

23 Junho, Quarta-feira

Tempo Temperatura Precipitação Vento Pressão Humidade
00:00 +28°C° 0 mm 1 m/s 709 mmHg 32%
01:00 +28°C° 0 mm 1 m/s 709 mmHg 29%
02:00 +28°C° 0 mm 1 m/s 709 mmHg 29%
03:00 +28°C° 0 mm 1 m/s 709 mmHg 30%
04:00 +28°C° 0 mm 1 m/s 708 mmHg 30%
05:00 +29°C° 0 mm 1 m/s 709 mmHg 29%
06:00 +30°C° 0 mm 1 m/s 710 mmHg 28%
07:00 +31°C° 0 mm 2 m/s 710 mmHg 27%
08:00 +34°C° 0 mm 2 m/s 710 mmHg 24%
09:00 +36°C° 0 mm 2 m/s 711 mmHg 20%
10:00 +38°C° 0 mm 2 m/s 711 mmHg 17%
11:00 +39°C° 0 mm 3 m/s 711 mmHg 16%
12:00 +40°C° 0 mm 3 m/s 711 mmHg 15%
13:00 +42°C° 0 mm 3 m/s 711 mmHg 13%
14:00 +42°C° 0 mm 3 m/s 711 mmHg 13%
15:00 +42°C° 0 mm 3 m/s 711 mmHg 14%
16:00 +42°C° 0 mm 3 m/s 711 mmHg 14%
17:00 +39°C° 0 mm 3 m/s 711 mmHg 18%
18:00 +36°C° 0 mm 2 m/s 711 mmHg 21%
19:00 +34°C° 0 mm 2 m/s 711 mmHg 25%
20:00 +32°C° 0 mm 2 m/s 711 mmHg 26%
21:00 +31°C° 0 mm 1 m/s 711 mmHg 27%
22:00 +29°C° 0 mm 1 m/s 711 mmHg 28%
23:00 +29°C° 0.2 mm 1 m/s 711 mmHg 33%

24 Junho, Quinta-feira

Tempo Temperatura Precipitação Vento Pressão Humidade
00:00 +28°C° 0.2 mm 2 m/s 712 mmHg 37%
01:00 +27°C° 0.2 mm 2 m/s 712 mmHg 42%
02:00 +27°C° 0.1 mm 2 m/s 712 mmHg 42%
03:00 +26°C° 0.1 mm 2 m/s 711 mmHg 43%
04:00 +26°C° 0.1 mm 2 m/s 711 mmHg 43%
05:00 +28°C° 0.1 mm 2 m/s 712 mmHg 40%
06:00 +29°C° 0.1 mm 1 m/s 712 mmHg 37%
07:00 +31°C° 0.1 mm 1 m/s 713 mmHg 34%
08:00 +34°C° 0 mm 2 m/s 713 mmHg 28%
09:00 +37°C° 0 mm 2 m/s 713 mmHg 22%
10:00 +39°C° 0 mm 2 m/s 713 mmHg 16%
11:00 +40°C° 0 mm 3 m/s 713 mmHg 18%
12:00 +41°C° 0 mm 4 m/s 713 mmHg 19%
13:00 +41°C° 0 mm 4 m/s 713 mmHg 21%
14:00 +41°C° 0 mm 4 m/s 713 mmHg 20%
15:00 +39°C° 0 mm 3 m/s 713 mmHg 19%
16:00 +39°C° 0 mm 3 m/s 713 mmHg 18%
17:00 +37°C° 0 mm 3 m/s 713 mmHg 23%
18:00 +35°C° 0 mm 2 m/s 712 mmHg 27%
19:00 +32°C° 0 mm 2 m/s 712 mmHg 32%
20:00 +30°C° 0.2 mm 2 m/s 713 mmHg 38%
21:00 +29°C° 0.2 mm 2 m/s 713 mmHg 43%
22:00 +27°C° 0.2 mm 2 m/s 713 mmHg 49%
23:00 +26°C° 0.1 mm 2 m/s 713 mmHg 52%
Mostrar mais